Private Wetterstation Wechselburg
Wetterdaten: Montag, 18.06.2012
Datum Zeit Temp. +2m Bodentemp. Temp.+5cm Temp. Wind Windchill X Diff Temp. Feuchte +2m Feuchte +5cm Sonnenschein Luftdruck Regen Wind Richtung Richtung Sonnenschein UV Taupunkt Windchill Windben
18.06.2012 00:00 13,3 C 22,3 C 15,9 C 13,0 C 12,5 C 0,0 C 85 % 93 % 0 % 1021,7 hPa 0,0 l/m 0,0 km/h (0 Bft) W 270 0 min 0,0 UV-I 10,8 C 12,5 C 0,0 km/h (0 Bft)
18.06.2012 00:13 12,9 C 22,2 C 15,6 C 12,7 C 12,3 C 0,0 C 86 % 93 % 0 % 1021,7 hPa 0,0 l/m 0,0 km/h (0 Bft) N 0 0 min 0,0 UV-I 10,6 C 12,3 C 0,0 km/h (0 Bft)
18.06.2012 00:20 12,8 C 22,2 C 15,7 C 12,6 C 12,2 C 0,0 C 86 % 93 % 0 % 1021,7 hPa 0,0 l/m 0,0 km/h (0 Bft) W 270 0 min 0,0 UV-I 10,5 C 12,2 C 0,0 km/h (0 Bft)
18.06.2012 00:25 12,8 C 22,2 C 15,6 C 12,6 C 12,2 C 0,0 C 86 % 93 % 0 % 1021,4 hPa 0,0 l/m 0,0 km/h (0 Bft) SW 225 0 min 0,0 UV-I 10,5 C 12,2 C 0,0 km/h (0 Bft)
18.06.2012 00:30 12,8 C 22,2 C 15,6 C 12,6 C 12,2 C 0,0 C 86 % 93 % 0 % 1021,4 hPa 0,0 l/m 0,0 km/h (0 Bft) W 270 0 min 0,0 UV-I 10,5 C 12,2 C 0,0 km/h (0 Bft)
18.06.2012 00:35 12,7 C 22,2 C 15,6 C 12,5 C 12,1 C 0,0 C 87 % 93 % 0 % 1021,4 hPa 0,0 l/m 0,0 km/h (0 Bft) W 270 0 min 0,0 UV-I 10,6 C 12,1 C 0,0 km/h (0 Bft)
18.06.2012 00:40 12,7 C 22,2 C 15,5 C 12,5 C 12,1 C 0,0 C 87 % 93 % 0 % 1021,4 hPa 0,0 l/m 0,0 km/h (0 Bft) W-SW 247 0 min 0,0 UV-I 10,6 C 12,1 C 0,0 km/h (0 Bft)
18.06.2012 00:45 12,5 C 22,2 C 15,5 C 12,3 C 11,9 C 0,0 C 87 % 93 % 0 % 1021,6 hPa 0,0 l/m 0,0 km/h (0 Bft) W-SW 247 0 min 0,0 UV-I 10,4 C 11,9 C 0,0 km/h (0 Bft)
18.06.2012 00:50 12,4 C 22,2 C 15,4 C 12,2 C 11,9 C 0,0 C 87 % 93 % 0 % 1021,6 hPa 0,0 l/m 0,0 km/h (0 Bft) W 270 0 min 0,0 UV-I 10,3 C 11,9 C 0,0 km/h (0 Bft)
18.06.2012 00:55 12,5 C 22,2 C 15,5 C 12,3 C 11,9 C 0,0 C 87 % 93 % 0 % 1021,6 hPa 0,0 l/m 0,0 km/h (0 Bft) W 270 0 min 0,0 UV-I 10,4 C 11,9 C 0,0 km/h (0 Bft)
18.06.2012 01:00 12,4 C 22,1 C 15,3 C 12,2 C 11,9 C 0,0 C 87 % 93 % 0 % 1021,6 hPa 0,0 l/m 0,0 km/h (0 Bft) W 270 0 min 0,0 UV-I 10,3 C 11,9 C 0,0 km/h (0 Bft)
18.06.2012 01:04 12,3 C 22,1 C 15,2 C 12,1 C 11,7 C 0,0 C 87 % 94 % 0 % 1021,3 hPa 0,0 l/m 0,0 km/h (0 Bft) W 270 0 min 0,0 UV-I 10,2 C 11,7 C 0,0 km/h (0 Bft)
18.06.2012 01:09 12,1 C 22,1 C 15,2 C 12,0 C 11,7 C 0,0 C 87 % 94 % 0 % 1021,3 hPa 0,0 l/m 0,2 km/h (0 Bft) S-SW 202 0 min 0,0 UV-I 10,0 C 11,7 C 0,0 km/h (0 Bft)
18.06.2012 01:14 12,1 C 22,1 C 15,2 C 12,0 C 11,7 C 0,0 C 87 % 94 % 0 % 1021,3 hPa 0,0 l/m 0,2 km/h (0 Bft) W 270 0 min 0,0 UV-I 10,0 C 11,7 C 0,0 km/h (0 Bft)
18.06.2012 01:21 12,1 C 22,1 C 15,2 C 12,0 C 11,7 C 0,0 C 87 % 94 % 0 % 1021,3 hPa 0,0 l/m 0,2 km/h (0 Bft) W 270 0 min 0,0 UV-I 10,0 C 11,7 C 0,0 km/h (0 Bft)
18.06.2012 01:25 12,0 C 22,1 C 15,2 C 11,9 C 11,7 C 0,0 C 87 % 94 % 0 % 1020,8 hPa 0,0 l/m 0,2 km/h (0 Bft) W-SW 247 0 min 0,0 UV-I 9,9 C 11,7 C 0,0 km/h (0 Bft)
18.06.2012 01:30 12,0 C 22,1 C 15,3 C 11,9 C 11,7 C 0,0 C 88 % 94 % 0 % 1020,8 hPa 0,0 l/m 0,0 km/h (0 Bft) W 270 0 min 0,0 UV-I 10,1 C 11,7 C 0,0 km/h (0 Bft)
18.06.2012 01:35 12,0 C 22,1 C 15,2 C 11,9 C 11,6 C 0,0 C 88 % 94 % 0 % 1020,8 hPa 0,0 l/m 0,0 km/h (0 Bft) S 180 0 min 0,0 UV-I 10,1 C 11,6 C 0,0 km/h (0 Bft)
18.06.2012 01:40 11,9 C 22,1 C 15,2 C 11,8 C 11,7 C 0,0 C 88 % 94 % 0 % 1020,8 hPa 0,0 l/m 0,0 km/h (0 Bft) S 180 0 min 0,0 UV-I 10,0 C 11,7 C 0,0 km/h (0 Bft)
18.06.2012 01:45 11,9 C 22,0 C 15,2 C 11,8 C 11,6 C 0,0 C 88 % 94 % 0 % 1020,9 hPa 0,0 l/m 0,0 km/h (0 Bft) W-SW 247 0 min 0,0 UV-I 10,0 C 11,6 C 0,0 km/h (0 Bft)
18.06.2012 01:50 11,9 C 22,1 C 15,1 C 11,8 C 11,6 C 0,0 C 88 % 94 % 0 % 1020,9 hPa 0,0 l/m 0,0 km/h (0 Bft) W-SW 247 0 min 0,0 UV-I 10,0 C 11,6 C 0,0 km/h (0 Bft)
18.06.2012 01:55 11,9 C 22,0 C 15,1 C 11,8 C 11,5 C 0,0 C 88 % 94 % 0 % 1020,9 hPa 0,0 l/m 0,0 km/h (0 Bft) W-SW 247 0 min 0,0 UV-I 10,0 C 11,5 C 0,0 km/h (0 Bft)
18.06.2012 02:00 11,9 C 22,0 C 15,1 C 11,8 C 11,5 C 0,0 C 88 % 94 % 0 % 1020,9 hPa 0,0 l/m 0,0 km/h (0 Bft) W-SW 247 0 min 0,0 UV-I 10,0 C 11,5 C 0,0 km/h (0 Bft)
18.06.2012 02:06 11,6 C 22,0 C 15,1 C 11,5 C 11,2 C 0,0 C 88 % 94 % 0 % 1020,8 hPa 0,0 l/m 0,0 km/h (0 Bft) N 0 0 min 0,0 UV-I 9,7 C 11,2 C 0,0 km/h (0 Bft)
18.06.2012 02:20 11,6 C 22,1 C 14,9 C 11,5 C 11,2 C 0,0 C 88 % 94 % 0 % 1020,8 hPa 0,0 l/m 0,0 km/h (0 Bft) S 180 0 min 0,0 UV-I 9,7 C 11,2 C 0,0 km/h (0 Bft)
18.06.2012 02:25 11,5 C 22,1 C 14,9 C 11,4 C 11,2 C 0,0 C 88 % 94 % 0 % 1020,4 hPa 0,0 l/m 0,0 km/h (0 Bft) S 180 0 min 0,0 UV-I 9,6 C 11,2 C 0,0 km/h (0 Bft)
18.06.2012 02:30 11,5 C 22,1 C 14,9 C 11,4 C 11,2 C 0,0 C 89 % 94 % 0 % 1020,4 hPa 0,0 l/m 0,0 km/h (0 Bft) S 180 0 min 0,0 UV-I 9,8 C 11,2 C 0,0 km/h (0 Bft)
18.06.2012 02:35 11,5 C 22,1 C 14,9 C 11,5 C 11,4 C 0,0 C 89 % 94 % 0 % 1020,4 hPa 0,0 l/m 0,0 km/h (0 Bft) W-SW 247 0 min 0,0 UV-I 9,8 C 11,4 C 0,0 km/h (0 Bft)
18.06.2012 02:40 11,5 C 22,0 C 14,8 C 11,4 C 11,3 C 0,0 C 89 % 94 % 0 % 1020,4 hPa 0,0 l/m 0,0 km/h (0 Bft) S 180 0 min 0,0 UV-I 9,8 C 11,3 C 0,0 km/h (0 Bft)
18.06.2012 02:45 11,4 C 22,0 C 14,8 C 11,4 C 11,3 C 0,0 C 89 % 94 % 0 % 1020,1 hPa 0,0 l/m 0,0 km/h (0 Bft) S 180 0 min 0,0 UV-I 9,7 C 11,3 C 0,0 km/h (0 Bft)
18.06.2012 02:50 11,4 C 22,0 C 14,8 C 11,4 C 11,4 C 0,0 C 89 % 94 % 0 % 1020,1 hPa 0,0 l/m 0,0 km/h (0 Bft) SW 225 0 min 0,0 UV-I 9,7 C 11,4 C 0,0 km/h (0 Bft)
18.06.2012 02:55 11,5 C 22,0 C 14,7 C 11,4 C 11,2 C 0,0 C 89 % 94 % 0 % 1020,1 hPa 0,0 l/m 0,0 km/h (0 Bft) SW 225 0 min 0,0 UV-I 9,8 C 11,2 C 0,0 km/h (0 Bft)
18.06.2012 03:00 11,3 C 22,0 C 14,7 C 11,2 C 11,1 C 0,0 C 89 % 94 % 0 % 1020,1 hPa 0,0 l/m 0,0 km/h (0 Bft) S-SO 157 0 min 0,0 UV-I 9,6 C 11,1 C 0,0 km/h (0 Bft)
18.06.2012 03:11 11,4 C 22,0 C 14,7 C 11,4 C 11,3 C 0,0 C 89 % 94 % 0 % 1020,1 hPa 0,0 l/m 0,0 km/h (0 Bft) N 0 0 min 0,0 UV-I 9,7 C 11,3 C 0,0 km/h (0 Bft)
18.06.2012 03:20 11,2 C 21,9 C 14,6 C 11,2 C 11,1 C 0,0 C 89 % 94 % 0 % 1020,1 hPa 0,0 l/m 0,3 km/h (0 Bft) W 270 0 min 0,0 UV-I 9,5 C 11,1 C 2,4 km/h (1 Bft)
18.06.2012 03:25 11,2 C 21,9 C 14,6 C 11,1 C 11,0 C 0,0 C 89 % 94 % 0 % 1019,8 hPa 0,0 l/m 0,0 km/h (0 Bft) W 270 0 min 0,0 UV-I 9,5 C 11,0 C 0,0 km/h (0 Bft)
18.06.2012 03:30 11,1 C 21,9 C 14,7 C 11,1 C 11,0 C 0,0 C 89 % 94 % 0 % 1019,8 hPa 0,0 l/m 0,0 km/h (0 Bft) W 270 0 min 0,0 UV-I 9,4 C 11,0 C 0,0 km/h (0 Bft)
18.06.2012 03:35 11,1 C 21,9 C 14,7 C 11,1 C 11,0 C 0,0 C 89 % 94 % 0 % 1019,8 hPa 0,0 l/m 0,0 km/h (0 Bft) W 270 0 min 0,0 UV-I 9,4 C 11,0 C 0,0 km/h (0 Bft)
18.06.2012 03:40 11,1 C 21,9 C 14,7 C 11,1 C 11,0 C 0,0 C 89 % 94 % 0 % 1019,8 hPa 0,0 l/m 0,0 km/h (0 Bft) W 270 0 min 0,0 UV-I 9,4 C 11,0 C 0,0 km/h (0 Bft)
18.06.2012 03:45 11,1 C 21,9 C 14,7 C 11,1 C 11,0 C 0,0 C 89 % 95 % 0 % 1019,3 hPa 0,0 l/m 0,0 km/h (0 Bft) W-SW 247 0 min 0,0 UV-I 9,4 C 11,0 C 0,0 km/h (0 Bft)
18.06.2012 03:50 11,1 C 21,8 C 14,7 C 11,0 C 10,9 C 0,0 C 89 % 94 % 0 % 1019,3 hPa 0,0 l/m 0,0 km/h (0 Bft) W-SW 247 0 min 0,0 UV-I 9,4 C 10,9 C 0,0 km/h (0 Bft)
18.06.2012 03:55 11,1 C 21,8 C 14,5 C 11,0 C 10,8 C 0,0 C 89 % 94 % 0 % 1019,3 hPa 0,0 l/m 0,0 km/h (0 Bft) W-SW 247 0 min 0,0 UV-I 9,4 C 10,8 C 0,0 km/h (0 Bft)
18.06.2012 04:00 11,0 C 21,8 C 14,5 C 10,9 C 10,8 C 0,0 C 89 % 94 % 0 % 1019,3 hPa 0,0 l/m 0,2 km/h (0 Bft) W 270 0 min 0,0 UV-I 9,3 C 10,8 C 0,0 km/h (0 Bft)
18.06.2012 04:11 10,8 C 21,8 C 14,4 C 10,8 C 10,8 C 0,0 C 89 % 94 % 0 % 1018,9 hPa 0,0 l/m 0,0 km/h (0 Bft) N 0 0 min 0,0 UV-I 9,1 C 10,8 C 0,0 km/h (0 Bft)
18.06.2012 04:20 10,8 C 21,8 C 14,5 C 10,8 C 10,8 C 0,0 C 90 % 94 % 0 % 1018,9 hPa 0,0 l/m 0,0 km/h (0 Bft) NW 315 0 min 0,0 UV-I 9,2 C 10,8 C 0,0 km/h (0 Bft)
18.06.2012 04:25 10,8 C 21,8 C 14,5 C 10,9 C 10,9 C 0,1 C 90 % 94 % 0 % 1018,7 hPa 0,0 l/m 0,0 km/h (0 Bft) N-NW 337 0 min 0,0 UV-I 9,2 C 10,9 C 0,0 km/h (0 Bft)
18.06.2012 04:30 10,9 C 21,8 C 14,5 C 11,0 C 11,0 C 0,1 C 90 % 94 % 0 % 1018,7 hPa 0,0 l/m 0,0 km/h (0 Bft) N-NW 337 0 min 0,0 UV-I 9,3 C 11,0 C 0,0 km/h (0 Bft)
18.06.2012 04:35 10,9 C 21,8 C 14,5 C 11,1 C 11,1 C 0,2 C 90 % 94 % 0 % 1018,7 hPa 0,0 l/m 0,0 km/h (0 Bft) NW 315 0 min 0,0 UV-I 9,3 C 11,1 C 0,0 km/h (0 Bft)
18.06.2012 04:40 10,9 C 21,7 C 14,5 C 11,1 C 11,1 C 0,2 C 90 % 94 % 0 % 1018,7 hPa 0,0 l/m 0,0 km/h (0 Bft) NW 315 0 min 0,0 UV-I 9,3 C 11,1 C 0,0 km/h (0 Bft)
18.06.2012 04:45 11,1 C 21,7 C 14,6 C 11,2 C 11,2 C 0,1 C 90 % 95 % 0 % 1018,8 hPa 0,0 l/m 0,0 km/h (0 Bft) N-NW 337 0 min 0,0 UV-I 9,5 C 11,2 C 0,0 km/h (0 Bft)
18.06.2012 04:50 11,1 C 21,7 C 14,5 C 11,2 C 11,2 C 0,1 C 90 % 94 % 0 % 1018,8 hPa 0,0 l/m 0,0 km/h (0 Bft) O-NO 67 0 min 0,0 UV-I 9,5 C 11,2 C 0,0 km/h (0 Bft)
18.06.2012 04:55 11,2 C 21,7 C 14,5 C 11,2 C 11,2 C 0,0 C 90 % 94 % 0 % 1018,8 hPa 0,0 l/m 0,2 km/h (0 Bft) O 90 0 min 0,0 UV-I 9,6 C 11,2 C 0,0 km/h (0 Bft)
18.06.2012 05:00 11,1 C 21,7 C 14,5 C 11,2 C 11,2 C 0,1 C 90 % 94 % 0 % 1018,8 hPa 0,0 l/m 0,0 km/h (0 Bft) O-NO 67 0 min 0,0 UV-I 9,5 C 11,2 C 0,0 km/h (0 Bft)
18.06.2012 05:06 11,2 C 21,6 C 14,5 C 11,2 C 11,2 C 0,0 C 90 % 94 % 0 % 1017,9 hPa 0,0 l/m 0,0 km/h (0 Bft) N 0 0 min 0,0 UV-I 9,6 C 11,2 C 0,0 km/h (0 Bft)
18.06.2012 05:20 11,2 C 21,6 C 14,5 C 11,2 C 11,2 C 0,0 C 90 % 94 % 0 % 1017,9 hPa 0,0 l/m 0,0 km/h (0 Bft) O-NO 67 0 min 0,0 UV-I 9,6 C 11,2 C 0,0 km/h (0 Bft)
18.06.2012 05:25 11,3 C 21,6 C 14,5 C 11,3 C 11,3 C 0,0 C 90 % 94 % 0 % 1018,2 hPa 0,0 l/m 0,0 km/h (0 Bft) O 90 0 min 0,0 UV-I 9,7 C 11,3 C 0,0 km/h (0 Bft)
18.06.2012 05:30 11,2 C 21,6 C 14,5 C 11,4 C 11,4 C 0,2 C 90 % 94 % 5 % 1018,2 hPa 0,0 l/m 0,0 km/h (0 Bft) O-NO 67 0 min 0,0 UV-I 9,6 C 11,4 C 0,0 km/h (0 Bft)
18.06.2012 05:35 11,3 C 21,6 C 14,4 C 11,5 C 11,5 C 0,2 C 90 % 94 % 5 % 1018,2 hPa 0,0 l/m 0,2 km/h (0 Bft) O-NO 67 0 min 0,0 UV-I 9,7 C 11,5 C 0,0 km/h (0 Bft)
18.06.2012 05:40 11,5 C 21,6 C 14,5 C 11,7 C 11,7 C 0,2 C 90 % 94 % 5 % 1018,2 hPa 0,0 l/m 0,2 km/h (0 Bft) O-NO 67 0 min 0,0 UV-I 9,9 C 11,7 C 0,0 km/h (0 Bft)
18.06.2012 05:45 11,5 C 21,6 C 14,5 C 11,9 C 11,9 C 0,4 C 90 % 94 % 11 % 1018,1 hPa 0,0 l/m 0,3 km/h (0 Bft) O-NO 67 0 min 0,0 UV-I 9,9 C 11,9 C 1,8 km/h (1 Bft)
18.06.2012 05:50 11,6 C 21,6 C 14,5 C 12,0 C 12,0 C 0,4 C 90 % 94 % 11 % 1018,1 hPa 0,0 l/m 1,0 km/h (0 Bft) O-NO 67 0 min 0,0 UV-I 10,0 C 12,0 C 2,6 km/h (1 Bft)
18.06.2012 05:55 11,9 C 21,6 C 14,5 C 12,3 C 12,3 C 0,4 C 90 % 94 % 11 % 1018,1 hPa 0,0 l/m 1,3 km/h (1 Bft) O-NO 67 0 min 0,0 UV-I 10,3 C 12,3 C 0,0 km/h (0 Bft)
18.06.2012 06:00 11,9 C 21,5 C 14,6 C 12,4 C 12,4 C 0,5 C 90 % 95 % 13 % 1018,1 hPa 0,0 l/m 0,6 km/h (0 Bft) NO 45 0 min 0,0 UV-I 10,3 C 12,4 C 0,0 km/h (0 Bft)
18.06.2012 06:11 12,6 C 21,4 C 14,8 C 13,6 C 13,6 C 1,0 C 90 % 95 % 26 % 1018,1 hPa 0,0 l/m 0,8 km/h (0 Bft) N 0 0 min 0,0 UV-I 11,0 C 13,6 C 2,6 km/h (1 Bft)
18.06.2012 06:20 12,9 C 21,4 C 15,0 C 13,7 C 13,7 C 0,8 C 91 % 95 % 21 % 1018,1 hPa 0,0 l/m 1,9 km/h (1 Bft) O-NO 67 0 min 0,0 UV-I 11,5 C 13,7 C 3,2 km/h (1 Bft)
18.06.2012 06:25 13,3 C 21,3 C 15,3 C 14,0 C 14,0 C 0,7 C 90 % 95 % 18 % 1017,6 hPa 0,0 l/m 2,3 km/h (1 Bft) O-NO 67 0 min 0,0 UV-I 11,7 C 14,0 C 4,2 km/h (1 Bft)
18.06.2012 06:30 13,5 C 21,3 C 15,8 C 14,3 C 14,3 C 0,8 C 89 % 95 % 21 % 1017,6 hPa 0,0 l/m 2,6 km/h (1 Bft) O-NO 67 0 min 0,0 UV-I 11,7 C 14,3 C 4,2 km/h (1 Bft)
18.06.2012 06:35 13,9 C 21,3 C 16,1 C 14,6 C 14,6 C 0,7 C 88 % 95 % 18 % 1017,6 hPa 0,0 l/m 3,2 km/h (1 Bft) O-NO 67 0 min 0,0 UV-I 11,9 C 14,6 C 4,5 km/h (1 Bft)
18.06.2012 06:40 14,0 C 21,3 C 16,4 C 14,9 C 14,9 C 0,9 C 87 % 94 % 24 % 1017,6 hPa 0,0 l/m 3,2 km/h (1 Bft) O-NO 67 0 min 0,0 UV-I 11,9 C 14,9 C 3,4 km/h (1 Bft)
18.06.2012 06:45 14,4 C 21,3 C 16,6 C 15,1 C 15,1 C 0,7 C 86 % 94 % 18 % 1017,9 hPa 0,0 l/m 3,4 km/h (1 Bft) O 90 0 min 0,0 UV-I 12,1 C 15,1 C 3,9 km/h (1 Bft)
18.06.2012 06:50 14,6 C 21,3 C 16,6 C 15,4 C 15,4 C 0,8 C 86 % 94 % 21 % 1017,9 hPa 0,0 l/m 3,4 km/h (1 Bft) O-NO 67 0 min 0,0 UV-I 12,3 C 15,4 C 3,9 km/h (1 Bft)
18.06.2012 06:55 14,8 C 21,3 C 16,5 C 16,0 C 16,0 C 1,2 C 86 % 94 % 32 % 1017,9 hPa 0,0 l/m 2,7 km/h (1 Bft) O-NO 67 0 min 0,0 UV-I 12,5 C 16,0 C 2,3 km/h (1 Bft)
18.06.2012 07:00 14,9 C 21,2 C 16,5 C 16,4 C 16,4 C 1,5 C 85 % 94 % 39 % 1017,9 hPa 0,0 l/m 1,6 km/h (1 Bft) O-SO 112 0 min 0,0 UV-I 12,4 C 16,4 C 0,0 km/h (0 Bft)
18.06.2012 07:11 16,1 C 21,2 C 16,8 C 21,0 C 21,0 C 4,9 C 85 % 93 % 100 % 1017,7 hPa 0,0 l/m 2,1 km/h (1 Bft) N 0 11 min 0,0 UV-I 13,6 C 21,0 C 2,4 km/h (1 Bft)
18.06.2012 07:20 16,5 C 21,2 C 17,1 C 21,4 C 21,4 C 4,9 C 84 % 93 % 100 % 1017,7 hPa 0,0 l/m 2,4 km/h (1 Bft) O-NO 67 9 min 0,0 UV-I 13,8 C 21,4 C 2,7 km/h (1 Bft)
18.06.2012 07:25 17,1 C 21,2 C 17,1 C 22,2 C 22,2 C 5,1 C 82 % 93 % 100 % 1017,3 hPa 0,0 l/m 2,3 km/h (1 Bft) O-NO 67 5 min 0,0 UV-I 14,0 C 22,2 C 0,0 km/h (0 Bft)
18.06.2012 07:30 17,4 C 21,2 C 17,1 C 22,8 C 22,8 C 5,4 C 82 % 93 % 100 % 1017,3 hPa 0,0 l/m 1,6 km/h (1 Bft) O-NO 67 5 min 0,0 UV-I 14,3 C 22,8 C 2,7 km/h (1 Bft)
18.06.2012 07:35 18,1 C 21,2 C 17,1 C 23,5 C 23,5 C 5,4 C 80 % 93 % 100 % 1017,3 hPa 0,0 l/m 1,1 km/h (1 Bft) O 90 5 min 0,0 UV-I 14,6 C 23,5 C 3,1 km/h (1 Bft)
18.06.2012 07:40 18,4 C 21,2 C 17,1 C 23,9 C 23,9 C 5,5 C 79 % 93 % 100 % 1017,3 hPa 0,0 l/m 1,8 km/h (1 Bft) O 90 5 min 0,0 UV-I 14,7 C 23,9 C 2,9 km/h (1 Bft)
18.06.2012 07:45 18,7 C 21,2 C 17,1 C 24,2 C 24,2 C 5,5 C 76 % 93 % 100 % 1017,1 hPa 0,0 l/m 2,9 km/h (1 Bft) O 90 5 min 0,0 UV-I 14,4 C 24,2 C 6,1 km/h (2 Bft)
18.06.2012 07:50 18,9 C 21,1 C 17,0 C 24,4 C 24,4 C 5,5 C 77 % 93 % 100 % 1017,1 hPa 0,0 l/m 2,7 km/h (1 Bft) O-NO 67 5 min 0,0 UV-I 14,8 C 24,4 C 3,2 km/h (1 Bft)
18.06.2012 07:55 19,3 C 21,1 C 17,1 C 25,0 C 25,0 C 5,7 C 77 % 93 % 100 % 1017,1 hPa 0,0 l/m 1,6 km/h (1 Bft) NO 45 5 min 0,0 UV-I 15,2 C 25,0 C 0,0 km/h (0 Bft)
18.06.2012 08:00 19,7 C 21,1 C 17,3 C 25,2 C 25,2 C 5,5 C 76 % 93 % 100 % 1017,1 hPa 0,0 l/m 1,8 km/h (1 Bft) N-NO 22 5 min 0,0 UV-I 15,3 C 25,2 C 2,9 km/h (1 Bft)
18.06.2012 08:11 20,2 C 21,1 C 17,5 C 26,0 C 26,0 C 5,8 C 75 % 92 % 100 % 1017,0 hPa 0,0 l/m 2,1 km/h (1 Bft) N 0 11 min 0,0 UV-I 15,6 C 26,0 C 0,0 km/h (0 Bft)
18.06.2012 08:20 20,5 C 21,1 C 17,5 C 26,4 C 26,4 C 5,9 C 74 % 92 % 100 % 1017,0 hPa 0,0 l/m 1,4 km/h (1 Bft) N 360 9 min 0,0 UV-I 15,7 C 26,4 C 2,3 km/h (1 Bft)
18.06.2012 08:25 20,7 C 21,1 C 17,6 C 26,0 C 26,0 C 5,3 C 73 % 92 % 100 % 1016,9 hPa 0,0 l/m 2,3 km/h (1 Bft) O 90 5 min 0,0 UV-I 15,7 C 26,0 C 2,9 km/h (1 Bft)
18.06.2012 08:30 20,6 C 21,1 C 17,7 C 26,0 C 26,0 C 5,4 C 73 % 92 % 100 % 1016,9 hPa 0,0 l/m 2,9 km/h (1 Bft) O-NO 67 5 min 0,0 UV-I 15,6 C 26,0 C 7,1 km/h (2 Bft)
18.06.2012 08:35 20,9 C 21,1 C 17,7 C 25,9 C 25,9 C 5,0 C 73 % 92 % 100 % 1016,9 hPa 0,0 l/m 3,4 km/h (1 Bft) O-NO 67 5 min 0,0 UV-I 15,9 C 25,9 C 1,9 km/h (1 Bft)
18.06.2012 08:40 21,1 C 21,1 C 17,7 C 26,9 C 26,9 C 5,8 C 74 % 92 % 100 % 1016,9 hPa 0,0 l/m 2,4 km/h (1 Bft) O-NO 67 5 min 0,0 UV-I 16,3 C 26,9 C 3,1 km/h (1 Bft)
18.06.2012 08:45 21,5 C 21,1 C 17,8 C 27,0 C 27,0 C 5,5 C 71 % 92 % 100 % 1016,7 hPa 0,0 l/m 2,1 km/h (1 Bft) O-NO 67 5 min 0,0 UV-I 16,0 C 27,0 C 7,7 km/h (2 Bft)
18.06.2012 08:50 21,4 C 21,1 C 17,9 C 26,5 C 26,5 C 5,1 C 70 % 92 % 100 % 1016,7 hPa 0,0 l/m 3,7 km/h (1 Bft) O-SO 112 5 min 0,0 UV-I 15,7 C 26,5 C 3,7 km/h (1 Bft)
18.06.2012 08:55 21,5 C 21,1 C 18,1 C 25,6 C 25,6 C 4,1 C 70 % 92 % 100 % 1016,7 hPa 0,0 l/m 4,2 km/h (1 Bft) O 90 5 min 0,0 UV-I 15,8 C 25,6 C 5,5 km/h (1 Bft)
18.06.2012 09:00 21,4 C 21,1 C 18,0 C 25,3 C 25,3 C 3,9 C 70 % 92 % 100 % 1016,7 hPa 0,0 l/m 3,9 km/h (1 Bft) O 90 5 min 0,0 UV-I 15,7 C 25,3 C 6,4 km/h (2 Bft)
18.06.2012 09:11 22,0 C 21,2 C 18,5 C 25,9 C 25,9 C 3,9 C 70 % 91 % 100 % 1016,4 hPa 0,0 l/m 4,2 km/h (1 Bft) N 0 11 min 0,0 UV-I 16,3 C 25,9 C 6,6 km/h (2 Bft)
18.06.2012 09:20 22,2 C 21,2 C 18,6 C 26,2 C 26,2 C 4,0 C 71 % 91 % 100 % 1016,4 hPa 0,0 l/m 4,7 km/h (1 Bft) O 90 9 min 0,0 UV-I 16,7 C 26,2 C 9,3 km/h (2 Bft)
18.06.2012 09:25 22,4 C 21,2 C 18,6 C 26,0 C 26,0 C 3,6 C 70 % 91 % 95 % 1016,3 hPa 0,0 l/m 4,5 km/h (1 Bft) O-NO 67 5 min 0,0 UV-I 16,7 C 26,0 C 1,9 km/h (1 Bft)
18.06.2012 09:30 22,5 C 21,2 C 18,6 C 25,6 C 25,6 C 3,1 C 71 % 91 % 82 % 1016,3 hPa 0,0 l/m 3,5 km/h (1 Bft) O 90 0 min 0,0 UV-I 17,0 C 25,6 C 4,5 km/h (1 Bft)
18.06.2012 09:35 22,5 C 21,2 C 18,7 C 25,1 C 25,1 C 2,6 C 70 % 91 % 68 % 1016,3 hPa 0,0 l/m 3,1 km/h (1 Bft) O-NO 67 0 min 0,0 UV-I 16,7 C 25,1 C 6,1 km/h (2 Bft)
18.06.2012 09:40 22,5 C 21,2 C 18,7 C 25,2 C 25,2 C 2,7 C 70 % 91 % 71 % 1016,3 hPa 0,0 l/m 4,2 km/h (1 Bft) O-NO 67 0 min 0,0 UV-I 16,7 C 25,2 C 6,9 km/h (2 Bft)
18.06.2012 09:45 22,5 C 21,2 C 18,8 C 25,6 C 25,6 C 3,1 C 71 % 91 % 82 % 1016,4 hPa 0,0 l/m 4,3 km/h (1 Bft) O-SO 112 0 min 0,0 UV-I 17,0 C 25,6 C 2,9 km/h (1 Bft)
18.06.2012 09:50 22,6 C 21,2 C 18,7 C 26,3 C 26,3 C 3,7 C 72 % 91 % 97 % 1016,4 hPa 0,0 l/m 2,6 km/h (1 Bft) O-SO 112 5 min 0,0 UV-I 17,3 C 26,3 C 0,0 km/h (0 Bft)
18.06.2012 09:55 22,9 C 21,2 C 18,8 C 28,5 C 28,5 C 5,6 C 71 % 91 % 100 % 1016,4 hPa 0,0 l/m 1,1 km/h (1 Bft) O-SO 112 5 min 0,0 UV-I 17,4 C 28,5 C 1,6 km/h (1 Bft)
18.06.2012 10:00 23,1 C 21,2 C 18,8 C 29,4 C 29,4 C 6,3 C 70 % 91 % 100 % 1016,4 hPa 0,0 l/m 1,4 km/h (1 Bft) NO 45 5 min 0,0 UV-I 17,3 C 29,4 C 1,8 km/h (1 Bft)
18.06.2012 10:11 23,5 C 21,2 C 19,0 C 29,4 C 29,4 C 5,9 C 71 % 90 % 100 % 1016,2 hPa 4,1 l/m 1,9 km/h (1 Bft) N 0 11 min 0,0 UV-I 17,9 C 29,4 C 0,0 km/h (0 Bft)
18.06.2012 10:20 23,6 C 21,2 C 18,9 C 30,1 C 30,1 C 6,5 C 71 % 90 % 100 % 1016,2 hPa 0,0 l/m 2,1 km/h (1 Bft) O-NO 67 9 min 0,0 UV-I 18,0 C 30,1 C 2,3 km/h (1 Bft)
18.06.2012 10:25 23,9 C 21,2 C 19,0 C 29,8 C 29,8 C 5,9 C 70 % 90 % 100 % 1015,8 hPa 0,0 l/m 2,3 km/h (1 Bft) O-NO 67 5 min 0,0 UV-I 18,1 C 29,8 C 2,1 km/h (1 Bft)
18.06.2012 10:30 23,9 C 21,2 C 19,0 C 29,5 C 29,5 C 5,6 C 71 % 90 % 100 % 1015,8 hPa 0,0 l/m 2,4 km/h (1 Bft) O-NO 67 5 min 0,0 UV-I 18,3 C 29,5 C 2,3 km/h (1 Bft)
18.06.2012 10:35 24,5 C 21,2 C 19,1 C 29,9 C 29,9 C 5,4 C 70 % 90 % 100 % 1015,8 hPa 0,0 l/m 1,9 km/h (1 Bft) S-SW 202 5 min 0,0 UV-I 18,7 C 29,9 C 2,6 km/h (1 Bft)
18.06.2012 10:40 24,8 C 21,4 C 19,1 C 30,4 C 30,4 C 5,6 C 70 % 90 % 100 % 1015,8 hPa 0,0 l/m 1,6 km/h (1 Bft) W 270 5 min 0,0 UV-I 18,9 C 30,4 C 4,2 km/h (1 Bft)
18.06.2012 10:45 25,1 C 21,4 C 19,3 C 30,1 C 30,1 C 5,0 C 68 % 90 % 100 % 1015,7 hPa 0,0 l/m 2,7 km/h (1 Bft) NO 45 5 min 0,0 UV-I 18,8 C 30,1 C 2,3 km/h (1 Bft)
18.06.2012 10:50 25,2 C 21,5 C 19,3 C 30,4 C 30,4 C 5,2 C 68 % 90 % 100 % 1015,7 hPa 0,0 l/m 2,7 km/h (1 Bft) O-NO 67 5 min 0,0 UV-I 18,9 C 30,4 C 2,9 km/h (1 Bft)
18.06.2012 10:55 25,2 C 21,5 C 19,5 C 30,2 C 30,2 C 5,0 C 67 % 90 % 100 % 1015,7 hPa 0,0 l/m 3,1 km/h (1 Bft) O 90 5 min 0,0 UV-I 18,6 C 30,2 C 6,3 km/h (2 Bft)
18.06.2012 11:00 25,2 C 21,5 C 19,6 C 29,9 C 29,9 C 4,7 C 67 % 90 % 100 % 1015,7 hPa 0,0 l/m 4,5 km/h (1 Bft) O-NO 67 5 min 0,0 UV-I 18,6 C 29,9 C 6,4 km/h (2 Bft)
18.06.2012 11:11 25,4 C 21,6 C 20,0 C 29,3 C 29,3 C 3,9 C 67 % 89 % 100 % 1015,8 hPa 0,0 l/m 4,0 km/h (1 Bft) N 0 11 min 0,0 UV-I 18,8 C 29,3 C 2,3 km/h (1 Bft)
18.06.2012 11:20 25,5 C 21,6 C 20,1 C 29,6 C 29,6 C 4,1 C 67 % 89 % 100 % 1015,8 hPa 0,0 l/m 3,4 km/h (1 Bft) W-SW 247 9 min 0,0 UV-I 18,9 C 29,6 C 1,8 km/h (1 Bft)
18.06.2012 11:25 25,6 C 21,6 C 20,0 C 30,0 C 30,0 C 4,4 C 67 % 89 % 100 % 1015,1 hPa 0,0 l/m 2,4 km/h (1 Bft) O-NO 67 5 min 0,0 UV-I 19,0 C 30,0 C 1,8 km/h (1 Bft)
18.06.2012 11:30 25,4 C 21,7 C 19,9 C 29,0 C 29,0 C 3,6 C 68 % 89 % 95 % 1015,1 hPa 0,0 l/m 2,4 km/h (1 Bft) O-NO 67 5 min 0,0 UV-I 19,1 C 29,0 C 2,3 km/h (1 Bft)
18.06.2012 11:35 25,3 C 21,7 C 19,8 C 27,7 C 27,7 C 2,4 C 69 % 89 % 63 % 1015,1 hPa 0,0 l/m 2,4 km/h (1 Bft) O 90 0 min 0,0 UV-I 19,2 C 27,7 C 5,3 km/h (1 Bft)
18.06.2012 11:40 25,2 C 21,7 C 19,9 C 27,7 C 27,7 C 2,5 C 69 % 89 % 66 % 1015,1 hPa 0,0 l/m 2,3 km/h (1 Bft) S-SO 157 0 min 0,0 UV-I 19,1 C 27,7 C 1,6 km/h (1 Bft)
18.06.2012 11:45 25,4 C 21,7 C 19,8 C 29,8 C 29,8 C 4,4 C 70 % 89 % 100 % 1014,9 hPa 0,0 l/m 1,9 km/h (1 Bft) S 180 5 min 0,0 UV-I 19,5 C 29,8 C 3,9 km/h (1 Bft)
18.06.2012 11:50 25,7 C 21,7 C 20,0 C 30,7 C 30,7 C 5,0 C 69 % 89 % 100 % 1014,9 hPa 0,0 l/m 2,1 km/h (1 Bft) NW 315 5 min 0,0 UV-I 19,6 C 30,7 C 4,3 km/h (1 Bft)
18.06.2012 11:55 26,1 C 21,7 C 20,1 C 31,7 C 31,7 C 5,6 C 69 % 89 % 100 % 1014,9 hPa 0,0 l/m 2,1 km/h (1 Bft) O-SO 112 5 min 0,0 UV-I 20,0 C 31,7 C 1,6 km/h (1 Bft)
18.06.2012 12:00 26,6 C 21,7 C 20,1 C 32,1 C 32,1 C 5,5 C 68 % 89 % 100 % 1014,9 hPa 0,0 l/m 1,6 km/h (1 Bft) O-NO 67 5 min 0,0 UV-I 20,2 C 32,1 C 0,0 km/h (0 Bft)
18.06.2012 12:11 26,7 C 21,8 C 20,4 C 31,5 C 31,5 C 4,8 C 66 % 89 % 100 % 1014,7 hPa 0,0 l/m 3,9 km/h (1 Bft) N 0 11 min 0,0 UV-I 19,8 C 31,5 C 3,1 km/h (1 Bft)
18.06.2012 12:20 26,7 C 21,8 C 20,7 C 31,2 C 31,2 C 4,5 C 65 % 89 % 100 % 1014,7 hPa 0,0 l/m 4,7 km/h (1 Bft) O-SO 112 9 min 0,0 UV-I 19,6 C 31,2 C 8,7 km/h (2 Bft)
18.06.2012 12:25 26,5 C 21,9 C 21,0 C 30,4 C 30,4 C 3,9 C 67 % 88 % 100 % 1014,6 hPa 0,0 l/m 5,8 km/h (2 Bft) NO 45 5 min 0,0 UV-I 19,9 C 30,4 C 2,7 km/h (1 Bft)
18.06.2012 12:30 26,7 C 21,9 C 20,9 C 30,4 C 30,4 C 3,7 C 67 % 88 % 97 % 1014,6 hPa 0,0 l/m 5,1 km/h (1 Bft) W 270 5 min 0,0 UV-I 20,0 C 30,4 C 0,0 km/h (0 Bft)
18.06.2012 12:35 27,1 C 21,9 C 20,8 C 31,5 C 31,5 C 4,4 C 68 % 88 % 100 % 1014,6 hPa 0,0 l/m 2,3 km/h (1 Bft) W-SW 247 5 min 0,0 UV-I 20,7 C 31,5 C 5,0 km/h (1 Bft)
18.06.2012 12:40 27,4 C 21,9 C 20,7 C 31,7 C 31,7 C 4,3 C 67 % 88 % 100 % 1014,6 hPa 0,0 l/m 1,6 km/h (1 Bft) NO 45 5 min 0,1 UV-I 20,7 C 31,7 C 0,0 km/h (0 Bft)
18.06.2012 12:45 27,6 C 21,9 C 20,6 C 31,7 C 31,7 C 4,1 C 66 % 88 % 100 % 1014,6 hPa 0,0 l/m 1,1 km/h (1 Bft) W 270 5 min 0,0 UV-I 20,7 C 31,7 C 1,9 km/h (1 Bft)
18.06.2012 12:50 27,9 C 22,0 C 20,7 C 32,2 C 32,2 C 4,3 C 66 % 88 % 100 % 1014,6 hPa 0,0 l/m 1,0 km/h (0 Bft) O-SO 112 5 min 0,0 UV-I 20,9 C 32,2 C 0,0 km/h (0 Bft)
18.06.2012 12:55 28,1 C 22,1 C 20,6 C 32,7 C 32,7 C 4,6 C 65 % 88 % 100 % 1014,6 hPa 0,0 l/m 1,3 km/h (1 Bft) NW 315 5 min 0,0 UV-I 20,9 C 32,7 C 3,4 km/h (1 Bft)
18.06.2012 13:00 28,2 C 22,1 C 20,6 C 32,8 C 32,8 C 4,6 C 64 % 88 % 100 % 1014,6 hPa 0,0 l/m 1,1 km/h (1 Bft) O-NO 67 5 min 0,1 UV-I 20,7 C 32,8 C 0,0 km/h (0 Bft)
18.06.2012 13:11 27,9 C 22,2 C 21,0 C 32,2 C 32,2 C 4,3 C 63 % 88 % 100 % 1014,2 hPa 0,0 l/m 3,2 km/h (1 Bft) N 0 11 min 0,0 UV-I 20,2 C 32,2 C 2,7 km/h (1 Bft)
18.06.2012 13:20 27,9 C 22,2 C 21,1 C 31,7 C 31,7 C 3,8 C 61 % 88 % 100 % 1014,2 hPa 0,0 l/m 4,7 km/h (1 Bft) O-NO 67 9 min 0,0 UV-I 19,7 C 31,7 C 7,1 km/h (2 Bft)
18.06.2012 13:25 27,9 C 22,1 C 21,4 C 31,4 C 31,4 C 3,5 C 63 % 88 % 92 % 1013,8 hPa 0,0 l/m 5,6 km/h (1 Bft) O-NO 67 5 min 0,0 UV-I 20,2 C 31,4 C 9,5 km/h (2 Bft)
18.06.2012 13:30 27,8 C 22,2 C 21,5 C 31,2 C 31,2 C 3,4 C 61 % 88 % 89 % 1013,8 hPa 0,0 l/m 6,4 km/h (2 Bft) O-NO 67 5 min 0,0 UV-I 19,6 C 31,2 C 8,7 km/h (2 Bft)
18.06.2012 13:35 28,0 C 22,2 C 21,3 C 31,5 C 31,5 C 3,5 C 64 % 87 % 92 % 1013,8 hPa 0,0 l/m 5,3 km/h (1 Bft) O-SO 112 5 min 0,0 UV-I 20,5 C 31,5 C 4,2 km/h (1 Bft)
18.06.2012 13:40 28,1 C 22,2 C 21,5 C 31,7 C 31,7 C 3,6 C 63 % 87 % 95 % 1013,8 hPa 0,0 l/m 4,7 km/h (1 Bft) O-NO 67 5 min 0,1 UV-I 20,4 C 31,7 C 5,8 km/h (2 Bft)
18.06.2012 13:45 28,0 C 22,3 C 21,5 C 32,0 C 32,0 C 4,0 C 64 % 87 % 100 % 1013,9 hPa 0,0 l/m 3,9 km/h (1 Bft) NO 45 5 min 0,0 UV-I 20,5 C 32,0 C 3,5 km/h (1 Bft)
18.06.2012 13:50 28,2 C 22,4 C 21,5 C 32,5 C 32,5 C 4,3 C 63 % 87 % 100 % 1013,9 hPa 0,0 l/m 3,1 km/h (1 Bft) N-NO 22 5 min 0,1 UV-I 20,5 C 32,5 C 3,9 km/h (1 Bft)
18.06.2012 13:55 28,9 C 22,4 C 21,5 C 33,9 C 33,9 C 5,0 C 62 % 87 % 100 % 1013,9 hPa 0,0 l/m 1,6 km/h (1 Bft) O-SO 112 5 min 0,0 UV-I 20,9 C 33,9 C 0,0 km/h (0 Bft)
18.06.2012 14:00 29,3 C 22,4 C 21,5 C 34,8 C 34,8 C 5,5 C 61 % 87 % 100 % 1013,9 hPa 0,0 l/m 1,0 km/h (0 Bft) O-NO 67 5 min 0,1 UV-I 21,0 C 34,8 C 2,1 km/h (1 Bft)
18.06.2012 14:11 30,7 C 22,5 C 21,5 C 35,4 C 35,4 C 4,7 C 58 % 87 % 100 % 1013,9 hPa 0,0 l/m 2,1 km/h (1 Bft) N 0 11 min 0,1 UV-I 21,5 C 35,4 C 0,0 km/h (0 Bft)
18.06.2012 14:20 30,8 C 22,5 C 21,5 C 35,6 C 35,6 C 4,8 C 57 % 87 % 100 % 1013,9 hPa 0,0 l/m 1,4 km/h (1 Bft) SW 225 9 min 0,0 UV-I 21,3 C 35,6 C 3,4 km/h (1 Bft)
18.06.2012 14:25 31,4 C 22,5 C 21,5 C 36,0 C 36,0 C 4,6 C 58 % 87 % 100 % 1013,3 hPa 0,0 l/m 1,0 km/h (0 Bft) S 180 5 min 0,1 UV-I 22,1 C 36,0 C 0,0 km/h (0 Bft)
18.06.2012 14:30 31,6 C 22,5 C 21,5 C 36,1 C 36,1 C 4,5 C 57 % 87 % 100 % 1013,3 hPa 0,0 l/m 1,6 km/h (1 Bft) W 270 5 min 0,0 UV-I 22,0 C 36,1 C 6,6 km/h (2 Bft)
18.06.2012 14:35 31,8 C 22,6 C 21,5 C 35,9 C 35,9 C 4,1 C 54 % 87 % 100 % 1013,3 hPa 0,0 l/m 2,3 km/h (1 Bft) SO 135 5 min 0,0 UV-I 21,3 C 35,9 C 2,6 km/h (1 Bft)
18.06.2012 14:40 31,8 C 22,6 C 21,5 C 35,8 C 35,8 C 4,0 C 54 % 87 % 100 % 1013,3 hPa 0,0 l/m 2,3 km/h (1 Bft) W-SW 247 5 min 0,0 UV-I 21,3 C 35,8 C 4,3 km/h (1 Bft)
18.06.2012 14:45 32,1 C 22,7 C 21,7 C 35,8 C 35,8 C 3,7 C 54 % 87 % 97 % 1013,6 hPa 0,0 l/m 2,9 km/h (1 Bft) W-SW 247 5 min 0,1 UV-I 21,6 C 35,8 C 2,9 km/h (1 Bft)
18.06.2012 14:50 32,2 C 22,7 C 21,8 C 36,1 C 36,1 C 3,9 C 54 % 87 % 100 % 1013,6 hPa 0,0 l/m 3,1 km/h (1 Bft) O-NO 67 5 min 0,0 UV-I 21,7 C 36,1 C 2,9 km/h (1 Bft)
18.06.2012 14:55 32,1 C 22,8 C 21,9 C 36,4 C 36,4 C 4,3 C 55 % 87 % 100 % 1013,6 hPa 0,0 l/m 1,9 km/h (1 Bft) W-SW 247 5 min 0,1 UV-I 21,9 C 36,4 C 4,3 km/h (1 Bft)
18.06.2012 15:00 32,2 C 22,8 C 21,9 C 36,4 C 36,4 C 4,2 C 54 % 87 % 100 % 1013,6 hPa 0,0 l/m 2,1 km/h (1 Bft) S-SW 202 5 min 0,1 UV-I 21,7 C 36,4 C 4,0 km/h (1 Bft)
18.06.2012 15:11 32,9 C 22,9 C 21,9 C 37,1 C 37,1 C 4,2 C 53 % 87 % 100 % 1013,6 hPa 0,0 l/m 1,1 km/h (1 Bft) N 0 11 min 0,0 UV-I 22,0 C 37,1 C 0,0 km/h (0 Bft)
18.06.2012 15:20 33,0 C 22,9 C 21,9 C 37,3 C 37,3 C 4,3 C 53 % 87 % 100 % 1013,6 hPa 0,0 l/m 1,3 km/h (1 Bft) NW 315 9 min 0,0 UV-I 22,1 C 37,3 C 2,6 km/h (1 Bft)
18.06.2012 15:25 33,2 C 23,0 C 21,9 C 37,1 C 37,1 C 3,9 C 51 % 87 % 100 % 1013,4 hPa 0,0 l/m 1,1 km/h (1 Bft) O-NO 67 5 min 0,0 UV-I 21,7 C 37,1 C 0,0 km/h (0 Bft)
18.06.2012 15:30 33,1 C 23,0 C 22,0 C 36,5 C 36,5 C 3,4 C 51 % 87 % 89 % 1013,4 hPa 0,0 l/m 1,0 km/h (0 Bft) O 90 5 min 0,1 UV-I 21,6 C 36,5 C 0,0 km/h (0 Bft)
18.06.2012 15:35 32,9 C 23,1 C 21,9 C 35,5 C 35,5 C 2,6 C 52 % 87 % 68 % 1013,4 hPa 0,0 l/m 0,6 km/h (0 Bft) W 270 0 min 0,1 UV-I 21,7 C 35,5 C 3,7 km/h (1 Bft)
18.06.2012 15:40 32,8 C 23,1 C 21,9 C 35,7 C 35,7 C 2,9 C 52 % 87 % 76 % 1013,4 hPa 0,0 l/m 1,6 km/h (1 Bft) W-SW 247 0 min 0,1 UV-I 21,6 C 35,7 C 9,2 km/h (2 Bft)
18.06.2012 15:45 33,0 C 23,2 C 22,3 C 35,9 C 35,9 C 2,9 C 51 % 87 % 76 % 1013,3 hPa 0,0 l/m 4,0 km/h (1 Bft) W-SW 247 0 min 0,1 UV-I 21,5 C 35,9 C 10,3 km/h (2 Bft)
18.06.2012 15:50 32,8 C 23,2 C 22,3 C 35,0 C 35,0 C 2,2 C 50 % 86 % 58 % 1013,3 hPa 0,0 l/m 5,0 km/h (1 Bft) SO 135 0 min 0,1 UV-I 21,0 C 35,0 C 2,3 km/h (1 Bft)
18.06.2012 15:55 32,3 C 23,3 C 22,3 C 33,9 C 33,9 C 1,6 C 49 % 86 % 42 % 1013,3 hPa 0,0 l/m 4,3 km/h (1 Bft) SW 225 0 min 0,0 UV-I 20,2 C 33,9 C 10,8 km/h (2 Bft)
18.06.2012 16:00 32,0 C 23,3 C 22,4 C 33,4 C 33,4 C 1,4 C 49 % 86 % 37 % 1013,3 hPa 0,0 l/m 5,1 km/h (1 Bft) S-SO 157 0 min 0,0 UV-I 19,9 C 33,4 C 7,4 km/h (2 Bft)
18.06.2012 16:06 31,8 C 23,4 C 22,6 C 33,7 C 33,7 C 1,9 C 51 % 86 % 50 % 1013,5 hPa 0,0 l/m 5,8 km/h (2 Bft) N 0 0 min 0,1 UV-I 20,4 C 33,7 C 12,4 km/h (3 Bft)
18.06.2012 16:20 32,5 C 23,5 C 22,7 C 35,4 C 35,4 C 2,9 C 52 % 85 % 76 % 1013,5 hPa 0,0 l/m 3,5 km/h (1 Bft) NW 315 0 min 0,1 UV-I 21,3 C 35,4 C 3,4 km/h (1 Bft)
18.06.2012 16:25 32,8 C 23,6 C 22,6 C 36,1 C 36,1 C 3,3 C 51 % 85 % 87 % 1013,2 hPa 0,0 l/m 3,4 km/h (1 Bft) W-SW 247 5 min 0,0 UV-I 21,3 C 36,1 C 4,3 km/h (1 Bft)
18.06.2012 16:30 32,9 C 23,6 C 22,8 C 35,7 C 35,7 C 2,8 C 48 % 85 % 74 % 1013,2 hPa 0,0 l/m 5,5 km/h (1 Bft) W-SW 247 0 min 0,0 UV-I 20,4 C 35,7 C 9,5 km/h (2 Bft)
18.06.2012 16:35 32,7 C 23,7 C 23,0 C 35,3 C 35,3 C 2,6 C 47 % 85 % 68 % 1013,2 hPa 0,0 l/m 6,6 km/h (2 Bft) W-NW 292 0 min 0,0 UV-I 19,9 C 35,3 C 8,7 km/h (2 Bft)
18.06.2012 16:40 32,3 C 23,7 C 23,1 C 34,3 C 34,3 C 2,0 C 48 % 84 % 53 % 1013,2 hPa 0,0 l/m 6,8 km/h (2 Bft) SW 225 0 min 0,1 UV-I 19,9 C 34,3 C 9,5 km/h (2 Bft)
18.06.2012 16:45 32,3 C 23,7 C 23,2 C 34,4 C 34,4 C 2,1 C 48 % 84 % 55 % 1013,6 hPa 0,0 l/m 6,8 km/h (2 Bft) W-SW 247 0 min 0,0 UV-I 19,9 C 34,4 C 14,0 km/h (3 Bft)
18.06.2012 16:50 32,4 C 23,7 C 23,3 C 35,0 C 35,0 C 2,6 C 49 % 84 % 68 % 1013,6 hPa 0,0 l/m 5,5 km/h (1 Bft) O 90 0 min 0,0 UV-I 20,3 C 35,0 C 2,6 km/h (1 Bft)
18.06.2012 16:55 32,7 C 23,8 C 23,2 C 35,7 C 35,7 C 3,0 C 47 % 84 % 79 % 1013,6 hPa 0,0 l/m 4,7 km/h (1 Bft) S-SO 157 0 min 0,1 UV-I 19,9 C 35,7 C 5,8 km/h (2 Bft)
18.06.2012 17:00 32,9 C 23,9 C 23,1 C 35,9 C 35,9 C 3,0 C 47 % 84 % 79 % 1013,6 hPa 0,0 l/m 4,8 km/h (1 Bft) SW 225 0 min 0,1 UV-I 20,1 C 35,9 C 9,8 km/h (2 Bft)
18.06.2012 17:06 32,8 C 23,9 C 23,2 C 35,7 C 35,7 C 2,9 C 45 % 83 % 76 % 1013,6 hPa 0,0 l/m 6,4 km/h (2 Bft) N 0 0 min 0,0 UV-I 19,3 C 35,7 C 14,0 km/h (3 Bft)
18.06.2012 17:20 32,8 C 24,0 C 23,3 C 35,6 C 35,6 C 2,8 C 45 % 83 % 74 % 1013,6 hPa 0,0 l/m 5,0 km/h (1 Bft) W 270 0 min 0,0 UV-I 19,3 C 35,6 C 5,3 km/h (1 Bft)
18.06.2012 17:25 32,7 C 24,0 C 23,3 C 35,4 C 35,4 C 2,7 C 46 % 83 % 71 % 1013,5 hPa 0,0 l/m 4,5 km/h (1 Bft) NW 315 0 min 0,0 UV-I 19,5 C 35,4 C 17,1 km/h (3 Bft)
18.06.2012 17:30 32,6 C 24,0 C 23,2 C 35,7 C 35,7 C 3,1 C 45 % 83 % 82 % 1013,5 hPa 0,0 l/m 4,5 km/h (1 Bft) W 270 0 min 0,0 UV-I 19,1 C 35,7 C 4,5 km/h (1 Bft)
18.06.2012 17:35 32,5 C 24,1 C 23,0 C 35,7 C 35,7 C 3,2 C 45 % 83 % 84 % 1013,5 hPa 0,0 l/m 2,9 km/h (1 Bft) NW 315 0 min 0,1 UV-I 19,0 C 35,7 C 3,7 km/h (1 Bft)
18.06.2012 17:40 32,5 C 24,1 C 23,0 C 35,7 C 35,7 C 3,2 C 45 % 83 % 84 % 1013,5 hPa 0,0 l/m 3,4 km/h (1 Bft) SO 135 0 min 0,0 UV-I 19,0 C 35,7 C 3,7 km/h (1 Bft)
18.06.2012 17:45 32,6 C 24,1 C 22,9 C 36,4 C 36,4 C 3,8 C 45 % 84 % 100 % 1013,6 hPa 0,0 l/m 2,7 km/h (1 Bft) W 270 5 min 0,1 UV-I 19,1 C 36,4 C 3,5 km/h (1 Bft)
18.06.2012 17:50 32,8 C 24,1 C 22,9 C 37,0 C 37,0 C 4,2 C 44 % 84 % 100 % 1013,6 hPa 0,0 l/m 2,3 km/h (1 Bft) S 180 5 min 0,1 UV-I 18,9 C 37,0 C 8,4 km/h (2 Bft)
18.06.2012 17:55 32,7 C 24,1 C 22,8 C 36,7 C 36,7 C 4,0 C 44 % 84 % 100 % 1013,6 hPa 0,0 l/m 2,3 km/h (1 Bft) S 180 5 min 0,1 UV-I 18,8 C 36,7 C 1,8 km/h (1 Bft)
18.06.2012 18:00 32,3 C 24,2 C 22,8 C 35,2 C 35,2 C 2,9 C 45 % 85 % 76 % 1013,6 hPa 0,0 l/m 2,9 km/h (1 Bft) W-SW 247 0 min 0,1 UV-I 18,8 C 35,2 C 4,2 km/h (1 Bft)
18.06.2012 18:06 31,7 C 24,2 C 22,7 C 33,5 C 33,5 C 1,8 C 47 % 85 % 47 % 1013,6 hPa 0,0 l/m 2,1 km/h (1 Bft) N 0 0 min 0,0 UV-I 19,0 C 33,5 C 6,8 km/h (2 Bft)
18.06.2012 18:20 31,7 C 24,2 C 22,6 C 35,1 C 35,1 C 3,4 C 49 % 85 % 89 % 1013,6 hPa 0,0 l/m 0,6 km/h (0 Bft) O 90 14 min 0,0 UV-I 19,6 C 35,1 C 0,0 km/h (0 Bft)
18.06.2012 18:25 31,9 C 24,2 C 22,5 C 36,1 C 36,1 C 4,2 C 48 % 85 % 100 % 1013,8 hPa 0,0 l/m 0,5 km/h (0 Bft) S 180 5 min 0,0 UV-I 19,5 C 36,1 C 1,9 km/h (1 Bft)
18.06.2012 18:30 32,0 C 24,3 C 22,5 C 36,5 C 36,5 C 4,5 C 47 % 85 % 100 % 1013,8 hPa 0,0 l/m 0,5 km/h (0 Bft) W-SW 247 5 min 0,0 UV-I 19,2 C 36,5 C 6,6 km/h (2 Bft)
18.06.2012 18:35 32,1 C 24,3 C 22,5 C 36,2 C 36,2 C 4,1 C 47 % 85 % 100 % 1013,8 hPa 0,0 l/m 1,6 km/h (1 Bft) N 360 5 min 0,0 UV-I 19,3 C 36,2 C 0,0 km/h (0 Bft)
18.06.2012 18:40 32,1 C 24,3 C 22,5 C 36,0 C 36,0 C 3,9 C 47 % 85 % 100 % 1013,8 hPa 0,0 l/m 1,8 km/h (1 Bft) W-SW 247 5 min 0,0 UV-I 19,3 C 36,0 C 0,0 km/h (0 Bft)
18.06.2012 18:45 32,0 C 24,3 C 22,5 C 35,5 C 35,5 C 3,5 C 48 % 86 % 92 % 1013,8 hPa 0,0 l/m 1,0 km/h (0 Bft) SO 135 5 min 0,0 UV-I 19,6 C 35,5 C 0,0 km/h (0 Bft)
18.06.2012 18:50 31,9 C 24,3 C 22,3 C 34,1 C 34,1 C 2,2 C 47 % 86 % 58 % 1013,8 hPa 0,0 l/m 0,8 km/h (0 Bft) S-SW 202 0 min 0,0 UV-I 19,2 C 34,1 C 4,3 km/h (1 Bft)
18.06.2012 18:55 31,3 C 24,3 C 22,2 C 32,3 C 32,3 C 1,0 C 48 % 86 % 26 % 1013,8 hPa 0,0 l/m 1,0 km/h (0 Bft) W-SW 247 0 min 0,0 UV-I 18,9 C 32,3 C 2,4 km/h (1 Bft)
18.06.2012 19:00 30,9 C 24,3 C 22,1 C 31,2 C 31,2 C 0,3 C 49 % 86 % 8 % 1013,8 hPa 0,0 l/m 0,8 km/h (0 Bft) NO 45 0 min 0,0 UV-I 18,9 C 31,2 C 0,0 km/h (0 Bft)
18.06.2012 19:11 30,1 C 24,5 C 22,1 C 31,9 C 31,9 C 1,8 C 51 % 87 % 47 % 1013,5 hPa 0,0 l/m 2,6 km/h (1 Bft) N 0 0 min 0,0 UV-I 18,8 C 31,9 C 8,4 km/h (2 Bft)
18.06.2012 19:20 30,1 C 24,5 C 22,4 C 32,1 C 32,1 C 2,0 C 50 % 86 % 53 % 1013,5 hPa 0,0 l/m 5,5 km/h (1 Bft) S-SW 202 0 min 0,0 UV-I 18,5 C 32,1 C 19,0 km/h (3 Bft)
18.06.2012 19:25 29,9 C 24,5 C 22,8 C 31,9 C 31,9 C 2,0 C 50 % 85 % 53 % 1013,8 hPa 0,0 l/m 7,7 km/h (2 Bft) S 180 0 min 0,0 UV-I 18,3 C 31,9 C 7,9 km/h (2 Bft)
18.06.2012 19:30 29,9 C 24,5 C 22,8 C 31,8 C 31,8 C 1,9 C 49 % 84 % 50 % 1013,8 hPa 0,0 l/m 7,4 km/h (2 Bft) W 270 0 min 0,0 UV-I 18,0 C 31,8 C 11,1 km/h (2 Bft)
18.06.2012 19:35 29,6 C 24,5 C 24,4 C 31,5 C 31,5 C 1,9 C 50 % 81 % 50 % 1013,8 hPa 0,0 l/m 6,8 km/h (2 Bft) S-SO 157 0 min 0,0 UV-I 18,1 C 31,5 C 6,4 km/h (2 Bft)
18.06.2012 19:40 29,5 C 24,5 C 25,5 C 31,4 C 31,4 C 1,9 C 50 % 79 % 50 % 1013,8 hPa 0,0 l/m 6,9 km/h (2 Bft) SW 225 0 min 0,0 UV-I 18,0 C 31,4 C 7,1 km/h (2 Bft)
18.06.2012 19:45 29,4 C 24,5 C 26,3 C 31,1 C 31,1 C 1,7 C 51 % 76 % 45 % 1014,2 hPa 0,0 l/m 6,1 km/h (2 Bft) SW 225 0 min 0,0 UV-I 18,2 C 31,1 C 7,7 km/h (2 Bft)
18.06.2012 19:50 29,3 C 24,5 C 25,5 C 30,8 C 30,8 C 1,5 C 51 % 76 % 39 % 1014,2 hPa 0,0 l/m 6,1 km/h (2 Bft) W-SW 247 0 min 0,0 UV-I 18,1 C 30,8 C 7,1 km/h (2 Bft)
18.06.2012 19:55 29,0 C 24,5 C 24,2 C 30,6 C 30,6 C 1,6 C 51 % 78 % 42 % 1014,2 hPa 0,0 l/m 5,5 km/h (1 Bft) W-NW 292 0 min 0,0 UV-I 17,8 C 30,6 C 3,9 km/h (1 Bft)
18.06.2012 20:00 28,8 C 24,5 C 24,3 C 30,5 C 30,5 C 1,7 C 52 % 79 % 45 % 1014,2 hPa 0,0 l/m 4,7 km/h (1 Bft) S 180 0 min 0,0 UV-I 17,9 C 30,5 C 10,5 km/h (2 Bft)
18.06.2012 20:11 28,0 C 24,5 C 23,4 C 28,4 C 28,4 C 0,4 C 52 % 80 % 11 % 1014,4 hPa 0,0 l/m 5,1 km/h (1 Bft) N 0 0 min 0,0 UV-I 17,2 C 28,4 C 6,1 km/h (2 Bft)
18.06.2012 20:20 27,8 C 24,5 C 23,3 C 28,0 C 28,0 C 0,2 C 52 % 81 % 5 % 1014,4 hPa 0,0 l/m 4,3 km/h (1 Bft) SW 225 0 min 0,0 UV-I 17,0 C 28,0 C 3,9 km/h (1 Bft)
18.06.2012 20:25 27,6 C 24,5 C 23,1 C 27,5 C 27,3 C 0,0 C 53 % 82 % 0 % 1014,8 hPa 0,0 l/m 3,4 km/h (1 Bft) W-SW 247 0 min 0,0 UV-I 17,1 C 27,3 C 4,3 km/h (1 Bft)
18.06.2012 20:30 27,3 C 24,5 C 22,8 C 27,2 C 26,9 C 0,0 C 54 % 82 % 0 % 1014,8 hPa 0,0 l/m 3,4 km/h (1 Bft) S-SW 202 0 min 0,0 UV-I 17,2 C 26,9 C 5,0 km/h (1 Bft)
18.06.2012 20:35 27,0 C 24,5 C 22,7 C 26,8 C 26,5 C 0,0 C 55 % 82 % 0 % 1014,8 hPa 0,0 l/m 3,5 km/h (1 Bft) SW 225 0 min 0,0 UV-I 17,2 C 26,5 C 3,1 km/h (1 Bft)
18.06.2012 20:40 26,8 C 24,5 C 22,6 C 26,6 C 26,2 C 0,0 C 55 % 82 % 0 % 1014,8 hPa 0,0 l/m 3,4 km/h (1 Bft) W-NW 292 0 min 0,0 UV-I 17,0 C 26,2 C 4,0 km/h (1 Bft)
18.06.2012 20:45 26,6 C 24,5 C 22,4 C 26,3 C 25,8 C 0,0 C 56 % 83 % 0 % 1015,1 hPa 0,0 l/m 3,5 km/h (1 Bft) S-SW 202 0 min 0,0 UV-I 17,1 C 25,8 C 5,0 km/h (1 Bft)
18.06.2012 20:50 26,5 C 24,6 C 22,2 C 26,3 C 25,8 C 0,0 C 57 % 84 % 0 % 1015,1 hPa 0,0 l/m 3,5 km/h (1 Bft) NW 315 0 min 0,0 UV-I 17,3 C 25,8 C 2,6 km/h (1 Bft)
18.06.2012 20:55 26,3 C 24,6 C 22,1 C 26,1 C 25,6 C 0,0 C 58 % 84 % 0 % 1015,1 hPa 0,0 l/m 3,4 km/h (1 Bft) O-NO 67 0 min 0,0 UV-I 17,4 C 25,6 C 3,4 km/h (1 Bft)
18.06.2012 21:00 26,1 C 24,6 C 22,0 C 26,0 C 25,7 C 0,0 C 58 % 84 % 0 % 1015,1 hPa 0,0 l/m 3,5 km/h (1 Bft) S 180 0 min 0,0 UV-I 17,2 C 25,7 C 6,8 km/h (2 Bft)
18.06.2012 21:11 25,8 C 24,6 C 21,9 C 25,7 C 25,5 C 0,0 C 58 % 85 % 0 % 1015,3 hPa 0,0 l/m 4,3 km/h (1 Bft) N 0 0 min 0,0 UV-I 16,9 C 25,5 C 4,2 km/h (1 Bft)
18.06.2012 21:20 25,7 C 24,6 C 21,8 C 25,6 C 25,4 C 0,0 C 58 % 84 % 0 % 1015,3 hPa 0,0 l/m 4,3 km/h (1 Bft) SW 225 0 min 0,0 UV-I 16,8 C 25,4 C 9,7 km/h (2 Bft)
18.06.2012 21:25 25,6 C 24,6 C 21,8 C 25,5 C 25,3 C 0,0 C 59 % 85 % 0 % 1015,8 hPa 0,0 l/m 4,0 km/h (1 Bft) S-SW 202 0 min 0,0 UV-I 17,0 C 25,3 C 3,7 km/h (1 Bft)
18.06.2012 21:30 25,5 C 24,6 C 21,7 C 25,4 C 25,1 C 0,0 C 59 % 85 % 0 % 1015,8 hPa 0,0 l/m 4,0 km/h (1 Bft) S 180 0 min 0,0 UV-I 16,9 C 25,1 C 2,6 km/h (1 Bft)
18.06.2012 21:35 25,3 C 24,6 C 21,6 C 25,2 C 24,9 C 0,0 C 59 % 85 % 0 % 1015,8 hPa 0,0 l/m 3,2 km/h (1 Bft) W-SW 247 0 min 0,0 UV-I 16,7 C 24,9 C 3,4 km/h (1 Bft)
18.06.2012 21:40 25,3 C 24,6 C 21,6 C 25,1 C 24,7 C 0,0 C 59 % 85 % 0 % 1015,8 hPa 0,0 l/m 2,7 km/h (1 Bft) SW 225 0 min 0,0 UV-I 16,7 C 24,7 C 2,7 km/h (1 Bft)
18.06.2012 21:45 25,0 C 24,6 C 21,4 C 24,8 C 24,3 C 0,0 C 59 % 85 % 0 % 1016,2 hPa 0,0 l/m 4,0 km/h (1 Bft) N-NO 22 0 min 0,0 UV-I 16,4 C 24,3 C 10,5 km/h (2 Bft)
18.06.2012 21:50 24,6 C 24,5 C 21,3 C 24,4 C 23,9 C 0,0 C 58 % 84 % 0 % 1016,2 hPa 0,0 l/m 5,0 km/h (1 Bft) SW 225 0 min 0,0 UV-I 15,8 C 23,9 C 6,6 km/h (2 Bft)
18.06.2012 21:55 24,0 C 24,5 C 21,2 C 23,7 C 23,2 C 0,0 C 58 % 85 % 0 % 1016,2 hPa 0,0 l/m 4,3 km/h (1 Bft) SW 225 0 min 0,0 UV-I 15,2 C 23,2 C 2,3 km/h (1 Bft)
18.06.2012 22:00 23,8 C 24,5 C 21,1 C 23,5 C 22,9 C 0,0 C 59 % 85 % 0 % 1016,2 hPa 0,0 l/m 3,7 km/h (1 Bft) S-SW 202 0 min 0,0 UV-I 15,3 C 22,9 C 4,2 km/h (1 Bft)
18.06.2012 22:11 22,7 C 24,6 C 20,7 C 22,3 C 21,5 C 0,0 C 60 % 86 % 0 % 1017,1 hPa 0,0 l/m 1,8 km/h (1 Bft) N 0 0 min 0,0 UV-I 14,5 C 21,5 C 2,7 km/h (1 Bft)
18.06.2012 22:20 22,5 C 24,5 C 20,7 C 22,1 C 21,3 C 0,0 C 60 % 86 % 0 % 1017,1 hPa 0,0 l/m 1,9 km/h (1 Bft) N-NO 22 0 min 0,0 UV-I 14,3 C 21,3 C 2,3 km/h (1 Bft)
18.06.2012 22:25 22,1 C 24,5 C 20,4 C 21,7 C 20,9 C 0,0 C 61 % 85 % 0 % 1017,6 hPa 0,0 l/m 2,7 km/h (1 Bft) S-SW 202 0 min 0,0 UV-I 14,2 C 20,9 C 5,1 km/h (1 Bft)
18.06.2012 22:30 21,8 C 24,5 C 20,4 C 21,4 C 20,7 C 0,0 C 61 % 86 % 0 % 1017,6 hPa 0,0 l/m 3,4 km/h (1 Bft) W 270 0 min 0,0 UV-I 13,9 C 20,7 C 7,9 km/h (2 Bft)
18.06.2012 22:35 21,5 C 24,5 C 20,3 C 21,1 C 20,4 C 0,0 C 61 % 86 % 0 % 1017,6 hPa 0,0 l/m 4,0 km/h (1 Bft) W-SW 247 0 min 0,0 UV-I 13,7 C 20,4 C 2,6 km/h (1 Bft)
18.06.2012 22:40 21,2 C 24,5 C 20,1 C 20,8 C 20,1 C 0,0 C 61 % 86 % 0 % 1017,6 hPa 0,0 l/m 4,0 km/h (1 Bft) O 90 0 min 0,0 UV-I 13,4 C 20,1 C 5,8 km/h (2 Bft)
18.06.2012 22:45 21,1 C 24,6 C 20,0 C 20,7 C 19,9 C 0,0 C 61 % 85 % 0 % 1018,1 hPa 0,0 l/m 3,2 km/h (1 Bft) SO 135 0 min 0,0 UV-I 13,3 C 19,9 C 6,9 km/h (2 Bft)
18.06.2012 22:50 20,8 C 24,6 C 19,9 C 20,4 C 19,7 C 0,0 C 61 % 86 % 0 % 1018,1 hPa 0,0 l/m 2,4 km/h (1 Bft) W-SW 247 0 min 0,0 UV-I 13,0 C 19,7 C 3,9 km/h (1 Bft)
18.06.2012 22:55 20,6 C 24,5 C 19,9 C 20,2 C 19,3 C 0,0 C 61 % 86 % 0 % 1018,1 hPa 0,0 l/m 1,3 km/h (1 Bft) S 180 0 min 0,0 UV-I 12,8 C 19,3 C 0,0 km/h (0 Bft)
18.06.2012 23:00 20,4 C 24,5 C 19,7 C 20,0 C 19,1 C 0,0 C 62 % 87 % 0 % 1018,1 hPa 0,0 l/m 1,0 km/h (0 Bft) SW 225 0 min 0,0 UV-I 12,9 C 19,1 C 1,6 km/h (1 Bft)
18.06.2012 23:11 19,8 C 24,5 C 19,5 C 19,4 C 18,6 C 0,0 C 63 % 88 % 0 % 1018,4 hPa 0,0 l/m 0,6 km/h (0 Bft) N 0 0 min 0,0 UV-I 12,5 C 18,6 C 0,0 km/h (0 Bft)
18.06.2012 23:20 19,7 C 24,5 C 19,5 C 19,3 C 18,4 C 0,0 C 63 % 88 % 0 % 1018,4 hPa 0,0 l/m 1,0 km/h (0 Bft) NW 315 0 min 0,0 UV-I 12,5 C 18,4 C 3,2 km/h (1 Bft)
18.06.2012 23:25 19,6 C 24,4 C 19,3 C 19,2 C 18,3 C 0,0 C 63 % 88 % 0 % 1019,0 hPa 0,0 l/m 1,1 km/h (1 Bft) N-NW 337 0 min 0,0 UV-I 12,4 C 18,3 C 4,2 km/h (1 Bft)
18.06.2012 23:30 19,5 C 24,4 C 19,2 C 19,1 C 18,2 C 0,0 C 63 % 88 % 0 % 1019,0 hPa 0,0 l/m 1,4 km/h (1 Bft) O-SO 112 0 min 0,0 UV-I 12,3 C 18,2 C 2,1 km/h (1 Bft)
18.06.2012 23:35 19,4 C 24,4 C 19,2 C 19,0 C 18,2 C 0,0 C 64 % 89 % 0 % 1019,0 hPa 0,0 l/m 1,6 km/h (1 Bft) N-NW 337 0 min 0,0 UV-I 12,4 C 18,2 C 3,2 km/h (1 Bft)
18.06.2012 23:40 19,3 C 24,4 C 19,1 C 18,9 C 18,0 C 0,0 C 64 % 88 % 0 % 1019,0 hPa 0,0 l/m 1,8 km/h (1 Bft) N-NW 337 0 min 0,0 UV-I 12,3 C 18,0 C 2,6 km/h (1 Bft)
18.06.2012 23:45 19,2 C 24,4 C 19,0 C 18,8 C 18,0 C 0,0 C 64 % 89 % 0 % 1019,3 hPa 0,0 l/m 1,9 km/h (1 Bft) W-SW 247 0 min 0,0 UV-I 12,2 C 18,0 C 2,1 km/h (1 Bft)
18.06.2012 23:50 19,1 C 24,4 C 19,1 C 18,7 C 17,9 C 0,0 C 64 % 89 % 0 % 1019,3 hPa 0,0 l/m 1,3 km/h (1 Bft) S-SO 157 0 min 0,0 UV-I 12,1 C 17,9 C 0,0 km/h (0 Bft)
18.06.2012 23:55 19,1 C 24,3 C 19,1 C 18,6 C 17,7 C 0,0 C 64 % 89 % 0 % 1019,3 hPa 0,0 l/m 0,3 km/h (0 Bft) S-SW 202 0 min 0,0 UV-I 12,1 C 17,7 C 2,4 km/h (1 Bft)
_ Min-Zeit 04:11 07:50 04:11 04:11 03:55 00:00 17:50 19:45 00:00 16:25 - 00:00 - - - 00:00 04:11 03:55 00:00
Minimum _ 10,8 C 21,1 C 14,4 C 10,8 C 10,8 C 0,0 C 44 % 76 % 0 % 1013,2 hPa - 0,0 km/h (0 Bft) - - - 0,0 UV-I 9,1 C 10,8 C 0,0 km/h (0 Bft)
_ Max-Zeit 15:25 20:50 19:45 15:20 15:20 10:20 06:20 03:45 07:11 00:00 10:11 19:25 - - 18:20 12:40 14:25 15:20 19:20
Maximum _ 33,2 C 24,6 C 26,3 C 37,3 C 37,3 C 6,5 C 91 % 95 % 100 % 1021,7 hPa 4,1 l/m 7,7 km/h
S (2 Bft)
- - 14 min 0,1 UV-I 22,1 C 37,3 C 19,0 km/h
S-SW (3 Bft)
Durchschnitt _ 22,2 C 22,6 C 19,1 C 24,3 C 24,2 C 2,2 C 69 % 89 % 49 % 1016,5 hPa #4,1 l/m 2,3 km/h (1 Bft) O-NO - #8:59 h 0,1 UV-I 15,6 C 24,2 C 3,1 km/h (1 Bft)
2012 www.wetterstation-wechselburg.de